Tracking 20942 objects as of 10-Jul-2020
HD Live streaming from Space Station
objects crossing your sky now

ARIANE 42L R/B

Track ARIANE 42L R/B now!
10-day predictions


NORAD ID: 25586
Int'l Code: 1998-075B
Perigee: 149.2 km
Apogee: 12,721.8 km
Inclination: 7.5 °
Period: 240.4 minutes
Semi major axis: 12806 km
RCS: 21.3079 m2 (large)
Launch date: December 22, 1998
Source: France (FR)
Launch site: FRENCH GUIANA (FRGUI)

Note: This is a ROCKET BODY
aabbcc
Your satellite tracking list
Your tracking list is empty




NASA's NSSDC Master Catalog

Two Line Element Set (TLE):
1 25586U 98075B   20191.27424010  .00499431 -19812-8  62101-3 0  9991
2 25586   7.4937 214.8927 4908666 146.1823 258.0380  5.99041343283147
Source of the keplerian elements: AFSPC